Date,TemperatureHighF,TemperatureAvgF,TemperatureLowF,DewpointHighF,DewpointAvgF,DewpointLowF,HumidityHigh,HumidityAvg,HumidityLow,PressureMaxIn,PressureMinIn,WindSpeedMaxMPH,WindSpeedAvgMPH,GustSpeedMaxMPH,PrecipitationSumIn
2014-1-1,54.1,44.1,35.6,48.0,41.3,34.0,95,90,78,30.22,30.13,11,4,12,0.00
2014-1-2,57.5,45.9,38.9,50.0,42.8,37.0,96,89,62,30.18,30.06,12,4,13,0.01
2014-1-3,57.2,48.2,40.6,52.0,44.8,39.0,95,88,68,30.08,29.95,10,4,13,0.00
2014-1-4,50.0,43.5,38.2,47.0,42.1,37.0,97,95,90,30.08,29.98,10,4,13,0.00
2014-1-5,60.1,44.6,34.4,46.0,36.4,26.0,94,75,40,30.20,30.07,16,6,19,0.01
2014-1-6,63.7,47.2,38.9,41.0,36.3,32.0,86,68,36,30.26,30.16,15,6,17,0.00
2014-1-7,58.6,48.6,40.3,49.0,41.6,36.0,96,78,48,30.21,30.14,13,4,15,0.00
2014-1-8,55.5,50.2,45.2,53.0,48.6,44.0,97,94,81,30.24,30.16,10,3,13,0.00
2014-1-9,54.8,48.6,43.6,52.0,46.3,43.0,98,92,81,30.29,30.19,10,3,15,0.03
2014-1-10,55.2,47.8,42.6,51.0,45.8,41.0,97,93,83,30.29,30.19,8,3,12,0.00
2014-1-11,55.8,49.9,43.6,54.0,48.6,43.0,99,95,87,30.30,30.16,5,2,12,0.20
2014-1-12,58.6,48.6,40.8,47.0,43.1,38.0,100,82,47,30.42,30.30,12,4,19,0.00
2014-1-13,60.5,48.9,39.8,46.0,42.1,37.0,93,78,52,30.46,30.35,12,5,14,0.00
2014-1-14,58.6,46.5,36.4,50.0,41.6,34.0,94,84,58,30.46,30.31,12,5,16,0.00
2014-1-15,66.3,49.8,38.1,47.0,38.1,33.0,86,67,33,30.33,30.19,15,6,19,0.00
2014-1-16,68.1,50.6,37.9,41.0,35.0,28.0,82,60,22,30.22,30.11,15,6,17,0.00
2014-1-17,63.8,49.3,37.9,47.0,36.8,32.0,80,64,39,30.16,30.10,16,7,19,0.00
2014-1-18,59.7,47.5,37.4,49.0,38.3,31.0,80,71,46,30.17,30.07,14,6,20,0.00
2014-1-19,56.1,45.8,36.5,50.0,39.8,32.0,92,79,65,30.14,30.05,15,6,17,0.00
2014-1-20,60.5,47.6,37.6,50.0,39.0,33.0,86,74,39,30.24,30.09,14,5,17,0.00
2014-1-21,59.0,46.4,35.4,50.0,40.1,32.0,88,79,63,30.28,30.16,13,4,17,0.00
2014-1-22,60.8,47.3,37.4,50.0,40.4,32.0,91,78,52,30.18,29.91,11,5,13,0.00
2014-1-23,59.4,47.2,38.2,52.0,41.5,35.0,91,81,65,30.00,29.86,10,4,14,0.00
2014-1-24,59.4,51.3,42.5,53.0,46.3,35.0,91,83,75,30.27,30.00,18,6,27,0.00
2014-1-25,61.3,52.2,43.5,51.0,44.3,39.0,87,75,60,30.27,30.10,13,4,16,0.00
2014-1-26,62.1,49.9,43.8,51.0,44.5,40.0,96,82,58,30.13,30.04,11,4,15,0.00
2014-1-27,56.9,48.9,42.0,51.0,46.2,40.0,94,90,77,30.19,30.07,7,2,10,0.00
2014-1-28,58.1,54.5,50.6,56.0,52.1,48.0,97,91,83,30.26,30.17,7,1,8,0.04
2014-1-29,55.8,53.2,50.8,56.0,52.5,50.0,100,97,95,30.20,30.00,8,1,9,0.18
2014-1-30,54.4,50.8,45.3,50.0,47.5,42.0,96,88,78,30.00,29.86,13,3,17,0.00
2014-1-31,54.0,46.9,40.1,44.0,39.4,34.0,91,76,48,30.12,29.94,14,4,22,0.00
2014-2-1,53.7,45.3,35.7,45.0,39.5,33.0,91,80,66,30.17,30.01,12,4,15,0.00
2014-2-2,48.7,46.1,42.7,44.0,41.8,38.0,94,85,75,30.02,29.81,15,7,26,0.47
2014-2-3,53.0,44.1,34.1,44.0,38.0,33.0,95,80,58,30.11,30.01,15,6,23,0.00
2014-2-4,52.6,44.9,38.1,42.0,36.7,33.0,89,74,54,30.19,30.10,13,4,19,0.00
2014-2-5,49.8,43.1,33.4,44.0,39.2,32.0,96,87,66,30.19,30.01,12,4,16,0.55
2014-2-6,53.5,48.5,45.0,51.0,47.1,44.0,97,94,88,30.00,29.87,18,5,30,0.29
2014-2-7,53.9,51.3,48.4,54.0,50.8,48.0,99,98,97,30.02,29.92,19,6,30,1.34
2014-2-8,55.1,54.6,53.7,55.0,54.4,54.0,99,99,99,30.11,29.97,14,4,16,2.54
2014-2-9,56.9,55.0,53.9,57.0,54.9,54.0,100,100,99,30.11,30.02,13,5,18,1.69
2014-2-10,55.2,52.0,47.9,54.0,51.6,47.0,100,98,95,30.29,30.08,9,2,14,0.76
2014-2-11,52.9,48.8,43.3,52.0,48.2,43.0,100,98,94,30.26,30.18,6,2,11,0.29
2014-2-12,56.5,51.1,45.8,54.0,50.4,46.0,99,97,90,30.28,30.18,7,3,11,0.13
2014-2-13,60.5,55.4,52.3,58.0,54.5,52.0,100,96,88,30.24,30.11,4,0,5,0.04
2014-2-14,60.9,56.1,52.5,58.0,55.2,52.0,100,97,88,30.19,30.04,4,1,7,0.12
2014-2-15,56.1,54.5,51.3,55.0,54.1,51.0,99,98,94,30.04,29.95,15,5,22,0.18
2014-2-16,57.7,49.3,42.0,52.0,46.0,40.0,99,89,74,30.23,30.05,10,3,15,0.01
2014-2-17,58.4,48.6,38.6,51.0,44.5,36.0,95,86,64,30.22,30.09,12,4,17,0.00
2014-2-18,59.0,51.6,44.6,54.0,49.2,43.0,97,91,81,30.21,30.10,9,3,15,0.07
2014-2-19,58.6,50.5,44.1,54.0,44.9,40.0,98,82,58,30.24,30.09,17,4,20,0.01
2014-2-20,62.7,51.2,43.3,50.0,43.9,39.0,91,77,51,30.24,30.12,6,2,11,0.00
2014-2-21,60.8,49.8,41.0,51.0,45.5,39.0,94,85,67,30.13,30.00,15,4,17,0.00
2014-2-22,56.7,48.2,41.3,51.0,45.6,40.0,95,91,81,30.03,29.93,8,3,12,0.00
2014-2-23,54.8,46.3,38.4,50.0,44.3,37.0,97,93,83,30.05,29.96,8,3,10,0.01
2014-2-24,66.1,49.9,39.6,51.0,45.0,38.0,98,84,52,30.01,29.92,9,4,11,0.00
2014-2-25,58.2,51.4,43.2,52.0,48.0,42.0,97,88,77,29.98,29.89,16,5,24,0.00
2014-2-26,56.1,54.3,52.7,55.0,52.6,49.0,98,94,88,29.94,29.60,20,8,41,0.91
2014-2-27,60.4,55.7,52.6,57.0,52.5,49.0,98,89,71,29.87,29.46,15,6,24,0.06
2014-2-28,59.0,54.6,51.5,57.0,52.1,47.0,97,91,66,29.46,29.30,18,8,32,0.74
2014-3-1,70.8,58.3,52.3,54.0,51.0,49.0,96,78,48,29.81,29.45,17,6,27,0.24
2014-3-2,60.8,55.8,53.5,59.0,54.8,53.0,99,96,87,30.13,29.80,11,3,15,0.10
2014-3-3,55.7,54.5,52.8,55.0,53.9,52.0,100,97,96,30.12,30.01,17,8,23,1.89
2014-3-4,60.5,56.4,53.2,57.0,54.5,52.0,98,93,86,30.11,30.03,15,4,16,0.03
2014-3-5,61.3,56.7,54.7,58.0,55.8,54.0,99,97,86,30.09,29.96,16,6,25,0.51
2014-3-6,61.6,54.8,46.9,59.0,53.7,46.0,100,95,86,30.22,30.04,9,2,12,0.00
2014-3-7,59.2,51.6,43.4,54.0,48.5,42.0,97,89,77,30.21,30.10,10,4,15,0.01
2014-3-8,63.3,53.1,43.4,56.0,49.3,42.0,96,87,67,30.21,30.11,9,3,11,0.01
2014-3-9,62.2,57.1,53.4,58.0,53.7,51.0,96,88,78,30.17,30.08,13,3,17,0.06
2014-3-10,61.9,53.9,46.2,54.0,49.1,43.0,97,85,58,30.28,30.11,19,4,21,0.14
2014-3-11,65.2,55.2,44.7,53.0,43.5,26.0,86,67,24,30.26,30.04,11,2,16,0.00
2014-3-12,73.3,57.2,45.4,50.0,37.9,26.0,82,52,17,30.14,30.03,11,5,18,0.00
2014-3-13,61.1,50.6,41.0,53.0,45.3,37.0,92,82,69,30.07,29.98,13,5,15,0.00
2014-3-14,62.6,53.2,45.8,54.0,48.7,43.0,93,85,69,30.24,30.06,10,3,17,0.00
2014-3-15,64.1,52.7,45.5,54.0,48.6,44.0,95,86,68,30.33,30.22,9,3,11,0.00
2014-3-16,59.9,50.6,42.5,52.0,46.7,41.0,95,86,76,30.33,30.21,13,4,15,0.00
2014-3-17,57.0,51.7,45.4,50.0,45.2,41.0,95,79,56,30.24,30.01,15,4,21,0.01
2014-3-18,58.9,50.3,41.7,50.0,43.7,38.0,90,79,54,30.00,29.90,14,4,16,0.00
2014-3-19,63.4,49.8,39.4,51.0,43.2,36.0,90,79,58,30.09,29.96,11,4,14,0.00
2014-3-20,56.2,49.8,44.4,48.0,44.5,40.0,92,82,73,30.06,29.94,11,4,17,0.00
2014-3-21,60.2,48.1,39.7,50.0,44.1,38.0,97,86,67,30.02,29.92,10,4,12,0.01
2014-3-22,56.4,47.7,38.4,51.0,43.9,36.0,94,87,74,30.12,29.97,7,4,12,0.00
2014-3-23,57.3,46.7,38.4,50.0,44.0,37.0,98,91,75,30.21,30.10,8,3,10,0.00
2014-3-24,58.0,47.1,39.2,51.0,44.2,38.0,98,90,75,30.18,30.04,11,3,13,0.01
2014-3-25,61.6,50.7,39.8,57.0,48.6,38.0,98,92,85,30.05,29.83,12,4,16,0.42
2014-3-26,62.5,53.8,49.2,56.0,51.6,48.0,100,92,78,29.93,29.76,8,2,17,0.35
2014-3-27,61.4,54.6,49.6,56.0,52.1,49.0,98,91,80,30.11,29.93,10,3,13,0.10
2014-3-28,56.7,55.2,53.9,56.0,54.5,53.0,98,97,95,30.16,30.06,18,8,26,0.25
2014-3-29,59.1,53.6,48.9,56.0,52.4,47.0,99,95,86,30.08,30.01,13,2,18,0.71
2014-3-30,59.6,50.2,41.7,52.0,46.4,41.0,98,87,63,30.14,30.05,10,3,12,0.02
2014-3-31,56.8,49.6,45.7,51.0,46.6,44.0,97,90,71,30.05,29.80,19,5,29,0.81
2014-4-1,53.0,46.6,41.8,51.0,45.1,41.0,97,94,86,29.88,29.80,15,5,26,0.41
2014-4-2,59.8,48.7,39.3,50.0,44.2,38.0,97,85,62,30.11,29.86,9,4,13,0.01
2014-4-3,60.0,50.1,40.9,53.0,46.4,40.0,100,87,74,30.12,30.02,15,6,19,0.00
2014-4-4,58.1,52.0,46.9,54.0,49.3,45.0,96,90,77,30.09,29.97,14,3,21,0.23
2014-4-5,57.5,51.0,42.4,52.0,47.1,41.0,95,87,76,30.23,30.07,14,3,23,0.01
2014-4-6,64.9,54.9,47.6,55.0,50.7,45.0,95,86,71,30.24,30.12,10,3,17,0.00
2014-4-7,63.9,55.0,48.4,56.0,51.8,47.0,96,89,74,30.17,30.07,9,2,11,0.00
2014-4-8,59.5,52.0,45.9,54.0,49.7,45.0,98,92,82,30.13,30.02,6,1,9,0.00
2014-4-9,59.2,50.8,46.7,53.0,49.2,46.0,98,94,80,30.10,30.00,6,1,8,0.01
2014-4-10,59.7,49.8,43.1,54.0,48.4,42.0,99,95,81,30.05,29.90,6,1,9,0.00
2014-4-11,57.8,51.8,45.7,54.0,50.1,45.0,99,94,85,29.95,29.87,8,2,15,0.01
2014-4-12,61.9,53.1,49.1,52.0,49.4,47.0,93,87,71,29.93,29.88,7,2,10,0.00
2014-4-13,58.9,53.2,49.1,53.0,50.0,48.0,95,89,78,30.07,29.92,5,2,8,0.00
2014-4-14,61.4,52.0,45.6,54.0,49.6,45.0,98,91,74,30.13,30.01,8,3,12,0.00
2014-4-15,60.7,52.8,46.3,52.0,48.5,45.0,97,86,68,30.05,29.91,13,4,21,0.01
2014-4-16,64.9,54.1,45.9,52.0,47.7,43.0,89,79,62,29.95,29.83,17,4,22,0.00
2014-4-17,66.2,53.7,47.0,52.0,48.5,45.0,94,83,49,29.90,29.80,14,4,24,0.00
2014-4-18,57.8,51.5,44.6,51.0,47.1,41.0,95,85,68,29.93,29.88,14,3,19,0.00
2014-4-19,57.7,51.0,41.8,53.0,47.6,40.0,94,88,79,30.14,29.92,17,4,20,0.00
2014-4-20,63.2,52.5,45.1,51.0,46.7,40.0,93,81,58,30.16,30.07,12,3,20,0.00
2014-4-21,61.4,52.4,46.3,52.0,46.7,33.0,95,82,40,30.09,29.98,17,2,18,0.08
2014-4-22,55.7,51.3,46.2,48.0,45.4,42.0,92,80,68,30.16,29.99,10,4,17,0.00
2014-4-23,58.6,52.1,43.2,52.0,46.9,40.0,90,83,75,30.17,30.10,9,2,16,0.00
2014-4-24,64.2,56.1,50.4,59.0,53.5,48.0,97,91,77,30.11,29.93,6,2,10,0.13
2014-4-25,54.3,50.7,45.5,53.0,48.8,43.0,98,93,78,29.97,29.80,13,2,17,0.15
2014-4-26,57.4,50.3,40.8,49.0,44.3,38.0,91,80,63,30.06,29.88,10,2,16,0.00
2014-4-27,59.7,53.2,46.9,55.0,50.1,45.0,97,89,74,30.15,29.99,11,3,15,0.10
2014-4-28,62.4,52.6,42.6,51.0,44.7,35.0,95,76,47,30.24,30.14,11,3,18,0.00
2014-4-29,70.4,56.8,46.6,55.0,47.5,36.0,88,72,51,30.21,30.04,10,3,11,0.00
2014-4-30,83.3,67.3,55.5,55.0,48.9,42.0,82,54,30,30.07,30.00,11,3,13,0.00
2014-5-1,81.3,65.7,52.0,56.0,51.8,46.0,94,64,32,30.11,30.02,9,2,11,0.00
2014-5-2,59.5,53.6,47.4,54.0,50.5,46.0,96,89,80,30.11,30.02,12,3,16,0.00
2014-5-3,58.9,53.9,47.4,53.0,50.4,46.0,96,88,78,30.05,30.00,12,3,17,0.01
2014-5-4,64.0,56.2,49.8,57.0,52.5,48.0,95,87,77,30.07,30.01,7,2,10,0.00
2014-5-5,59.3,53.5,47.1,53.0,48.6,45.0,95,83,61,30.05,29.98,19,5,24,0.00
2014-5-6,63.3,54.2,47.8,50.0,46.3,42.0,89,75,63,29.99,29.90,16,5,25,0.00
2014-5-7,57.7,52.6,44.6,49.0,45.8,40.0,88,78,68,30.02,29.90,17,5,24,0.00
2014-5-8,58.1,53.7,49.3,57.0,51.4,46.0,97,92,80,30.07,29.99,12,2,17,0.16
2014-5-9,59.1,54.0,48.8,54.0,50.3,45.0,98,88,61,30.18,30.08,15,4,22,0.01
2014-5-10,61.0,53.9,48.5,50.0,46.4,43.0,86,76,55,30.18,30.08,18,4,29,0.00
2014-5-11,63.4,53.9,47.5,51.0,47.4,43.0,90,79,60,30.15,30.05,17,3,17,0.00
2014-5-12,70.0,56.8,46.8,55.0,49.5,44.0,91,77,55,30.14,30.04,9,3,11,0.00
2014-5-13,81.7,64.0,50.1,54.0,47.9,41.0,87,60,28,30.13,30.05,14,4,15,0.00
2014-5-14,78.1,63.4,52.5,57.0,49.7,45.0,80,63,31,30.13,30.07,11,4,16,0.00
2014-5-15,64.7,55.4,48.1,55.0,49.6,44.0,93,81,69,30.13,30.05,11,4,14,0.00
2014-5-16,62.4,55.4,47.2,53.0,50.0,44.0,94,82,72,30.09,29.99,16,4,21,0.00
2014-5-17,60.5,54.7,48.8,54.0,50.6,47.0,95,86,77,30.00,29.95,16,4,22,0.00
2014-5-18,63.0,55.6,50.5,54.0,50.9,47.0,92,84,61,30.00,29.95,19,4,25,0.00
2014-5-19,60.5,55.3,49.6,55.0,50.8,47.0,91,85,79,29.98,29.92,9,2,13,0.00
2014-5-20,60.2,54.1,47.2,54.0,50.5,45.0,95,88,79,30.00,29.93,13,3,20,0.00
2014-5-21,64.1,54.9,48.5,55.0,50.8,47.0,96,86,70,29.97,29.88,13,3,17,0.00
2014-5-22,60.7,52.9,48.1,54.0,50.3,46.0,97,91,75,30.00,29.90,9,2,10,0.01
2014-5-23,66.5,56.4,48.3,56.0,51.7,47.0,98,85,69,30.02,29.94,10,3,20,0.00
2014-5-24,64.1,55.0,48.8,54.0,50.3,47.0,96,85,69,30.00,29.93,13,3,19,0.00
2014-5-25,62.5,55.3,47.5,52.0,48.7,45.0,93,79,63,30.00,29.94,19,4,21,0.00
2014-5-26,62.3,55.1,48.5,55.0,50.3,46.0,94,84,72,30.04,29.98,14,3,22,0.00
2014-5-27,60.5,53.8,46.2,49.0,46.9,43.0,94,78,62,30.09,30.01,17,5,26,0.00
2014-5-28,62.2,55.7,46.1,49.0,45.4,39.0,78,69,48,30.11,29.99,16,4,20,0.00
2014-5-29,61.6,54.3,45.7,51.0,47.6,43.0,91,78,67,29.99,29.88,13,3,20,0.00
2014-5-30,58.3,52.0,45.3,51.0,48.3,43.0,94,87,78,29.94,29.87,12,3,17,0.00
2014-5-31,62.5,53.0,45.2,53.0,49.1,44.0,97,87,71,30.00,29.89,7,2,9,0.00
2014-6-1,63.2,53.4,45.7,53.0,49.3,44.0,98,87,70,29.92,29.79,7,1,9,0.01
2014-6-2,62.0,53.7,45.7,54.0,50.5,44.0,97,89,72,29.90,29.79,10,2,11,0.02
2014-6-3,64.1,54.3,49.6,54.0,50.4,47.0,97,87,70,29.97,29.86,7,2,10,0.00
2014-6-4,61.7,53.0,46.6,54.0,49.8,45.0,97,89,75,29.92,29.82,7,2,7,0.01
2014-6-5,64.9,56.0,47.8,56.0,52.2,47.0,98,87,71,29.88,29.80,12,3,15,0.00
2014-6-6,61.1,54.8,48.6,56.0,52.2,47.0,97,91,79,29.88,29.80,7,2,11,0.01
2014-6-7,64.6,55.5,48.8,55.0,51.7,48.0,97,87,69,29.86,29.77,7,2,10,0.00
2014-6-8,69.0,56.6,49.2,57.0,52.6,48.0,98,87,64,29.85,29.72,5,2,8,0.00
2014-6-9,72.6,59.4,51.3,57.0,53.9,50.0,100,83,58,29.79,29.67,8,2,12,0.00
2014-6-10,63.2,56.6,53.9,58.0,54.4,53.0,97,92,79,29.83,29.72,6,2,8,0.00
2014-6-11,60.9,55.8,52.2,55.0,53.2,50.0,95,91,80,29.93,29.81,8,2,12,0.00
2014-6-12,60.9,55.2,49.9,55.0,51.3,48.0,95,87,74,29.97,29.88,18,4,24,0.00
2014-6-13,67.1,56.3,47.9,54.0,50.2,46.0,95,81,61,30.00,29.94,16,4,24,0.00
2014-6-14,61.4,55.2,48.5,53.0,49.6,46.0,91,82,69,29.95,29.82,13,3,20,0.00
2014-6-15,62.9,55.2,48.4,53.0,50.3,45.0,93,84,71,29.84,29.79,22,5,24,0.00
2014-6-16,58.6,53.6,47.8,51.0,48.2,44.0,94,82,70,29.91,29.81,15,5,23,0.02
2014-6-17,61.8,55.1,47.7,51.0,47.4,42.0,85,75,66,29.97,29.90,15,4,18,0.00
2014-6-18,67.2,55.2,47.9,54.0,49.1,45.0,91,80,63,29.96,29.90,12,3,16,0.00
2014-6-19,66.0,55.0,45.8,54.0,49.9,44.0,95,84,66,30.00,29.91,13,3,18,0.00
2014-6-20,61.3,55.0,48.7,55.0,50.7,47.0,94,85,77,30.00,29.93,15,4,20,0.00
2014-6-21,59.4,54.1,47.6,52.0,49.5,45.0,91,84,76,29.94,29.87,15,4,20,0.00
2014-6-22,59.5,54.1,47.2,53.0,49.9,44.0,93,86,78,29.93,29.86,15,4,22,0.00
2014-6-23,65.5,55.7,47.6,55.0,49.7,46.0,97,81,60,29.97,29.89,15,4,22,0.00
2014-6-24,64.5,57.1,51.1,58.0,52.7,47.0,96,85,78,30.00,29.96,19,5,26,0.00
2014-6-25,62.7,56.8,50.6,60.0,54.7,49.0,98,93,86,30.00,29.94,9,2,15,0.01
2014-6-26,66.8,58.8,54.3,60.0,56.5,53.0,98,92,78,30.00,29.95,7,2,12,0.00
2014-6-27,70.0,61.1,53.5,62.0,57.2,52.0,97,87,74,30.00,29.93,9,2,16,0.00
2014-6-28,64.4,58.6,51.6,58.0,53.3,50.0,98,83,69,29.96,29.91,20,5,24,0.01
2014-6-29,66.2,58.1,50.3,55.0,52.2,49.0,95,81,67,29.94,29.82,14,3,18,0.00
2014-6-30,63.0,57.0,50.7,55.0,52.4,48.0,95,85,75,29.85,29.78,6,2,8,0.00
2014-7-1,64.8,57.5,53.2,57.0,54.4,52.0,96,90,77,29.87,29.79,7,1,8,0.00
2014-7-2,69.9,58.5,51.7,59.0,54.3,49.0,96,86,68,29.88,29.81,14,3,23,0.00
2014-7-3,62.7,56.6,49.1,56.0,52.0,48.0,98,85,74,29.91,29.84,11,3,17,0.00
2014-7-4,61.9,54.3,48.2,55.0,51.1,47.0,98,89,75,29.99,29.87,13,3,17,0.01
2014-7-5,64.8,55.0,45.7,57.0,51.4,44.0,97,88,72,30.09,29.96,7,2,10,0.01
2014-7-6,67.0,55.0,44.6,58.0,51.2,43.0,97,87,69,30.05,29.91,10,3,14,0.00
2014-7-7,69.7,57.8,49.6,60.0,53.6,48.0,97,86,66,29.93,29.84,7,2,9,0.01
2014-7-8,66.6,58.6,53.2,58.0,55.0,51.0,97,88,73,29.93,29.84,10,3,12,0.00
2014-7-9,68.9,60.0,54.0,59.0,55.7,53.0,96,86,70,29.96,29.89,17,3,18,0.00
2014-7-10,70.0,61.3,55.7,60.0,57.1,55.0,96,86,71,29.93,29.89,17,6,22,0.01
2014-7-11,71.1,62.4,56.6,60.0,56.7,55.0,96,82,62,30.07,29.92,18,6,23,0.00
2014-7-12,62.7,59.4,54.6,57.0,55.9,53.0,93,88,81,30.12,30.01,9,3,16,0.00
2014-7-13,66.5,57.9,50.6,58.0,54.2,50.0,98,88,74,30.02,29.88,14,3,17,0.00
2014-7-14,74.3,60.8,52.0,59.0,54.5,51.0,97,81,56,29.92,29.84,10,2,16,0.01
2014-7-15,69.6,60.4,53.8,59.0,56.2,52.0,98,86,70,30.00,29.89,11,3,18,0.00
2014-7-16,71.2,62.0,57.3,62.0,58.9,56.0,98,89,71,30.04,29.97,6,1,12,0.01
2014-7-17,69.2,60.3,55.5,61.0,57.1,55.0,98,90,71,30.02,29.96,7,1,9,0.01
2014-7-18,68.7,60.8,56.8,60.0,57.0,55.0,97,88,72,30.03,29.95,7,1,9,0.01
2014-7-19,69.9,60.7,56.3,60.0,57.2,55.0,96,88,70,29.98,29.93,6,2,8,0.01
2014-7-20,70.6,62.3,54.7,61.0,58.1,54.0,98,87,70,30.00,29.92,10,2,13,0.01
2014-7-21,74.8,64.8,59.8,64.0,60.0,57.0,95,85,66,30.07,29.96,9,2,18,0.00
2014-7-22,74.6,65.8,59.3,63.0,60.0,57.0,96,82,64,30.10,30.02,9,3,11,0.03
2014-7-23,72.1,64.9,57.1,65.0,60.3,54.0,94,85,74,30.15,30.05,15,4,23,0.00
2014-7-24,68.1,60.6,53.9,58.0,54.8,51.0,96,82,65,30.06,29.84,13,2,16,0.00
2014-7-25,76.6,60.4,53.4,58.0,54.1,50.0,92,80,51,29.90,29.82,7,2,12,0.00
2014-7-26,63.4,57.8,51.7,58.0,53.4,49.0,93,85,77,29.96,29.85,7,2,11,0.00
2014-7-27,64.9,57.9,53.9,59.0,55.4,53.0,97,91,78,30.00,29.92,5,1,8,0.00
2014-7-28,64.9,57.6,52.3,58.0,54.7,52.0,98,90,75,30.07,29.99,6,2,9,0.02
2014-7-29,65.5,58.0,53.2,58.0,55.2,52.0,98,90,76,30.08,29.97,6,2,11,0.00
2014-7-30,66.2,58.5,53.7,59.0,55.6,52.0,97,90,76,30.02,29.94,8,2,12,0.00
2014-7-31,67.0,58.4,54.2,59.0,55.8,52.0,98,91,75,29.99,29.87,5,2,10,0.01
2014-8-1,65.6,57.6,51.9,59.0,55.1,51.0,98,91,77,29.94,29.87,7,3,11,0.00
2014-8-2,62.7,56.9,53.3,57.0,54.7,53.0,98,92,80,29.97,29.88,9,2,12,0.00
2014-8-3,65.6,58.2,54.5,58.0,55.4,54.0,98,90,73,29.98,29.89,7,2,9,0.01
2014-8-4,66.3,58.9,54.8,60.0,56.1,53.0,95,91,78,30.01,29.93,5,2,12,0.00
2014-8-5,65.1,58.4,56.2,60.0,56.8,55.0,97,94,80,30.08,29.99,5,1,7,0.02
2014-8-6,65.6,58.8,54.3,60.0,56.4,52.0,98,92,77,30.04,29.92,10,2,14,0.00
2014-8-7,66.1,57.9,51.6,58.0,54.5,50.0,97,88,73,29.98,29.86,13,3,18,0.00
2014-8-8,72.6,58.0,49.8,58.0,52.9,49.0,97,84,58,29.93,29.86,11,3,20,0.00
2014-8-9,65.2,55.5,50.0,57.0,52.4,49.0,97,89,71,29.95,29.87,13,3,17,0.01
2014-8-10,67.3,59.3,50.3,58.0,55.0,49.0,96,86,72,29.99,29.91,14,4,24,0.00
2014-8-11,71.0,62.8,56.3,60.0,57.1,55.0,94,82,65,29.98,29.91,8,3,12,0.00
2014-8-12,68.4,61.1,54.7,60.0,57.1,53.0,95,87,72,30.00,29.92,8,2,13,0.00
2014-8-13,67.0,58.7,52.2,59.0,55.5,51.0,98,89,74,30.02,29.91,8,2,12,0.00
2014-8-14,66.0,57.8,50.3,59.0,54.9,49.0,98,90,75,29.97,29.90,8,2,11,0.01
2014-8-15,63.7,58.6,55.1,60.0,56.8,54.0,99,93,84,30.03,29.92,6,2,9,0.00
2014-8-16,65.1,59.3,55.0,59.0,56.6,54.0,98,91,77,30.06,29.98,10,3,10,0.01
2014-8-17,64.5,57.6,53.3,59.0,55.6,53.0,98,93,80,30.04,29.89,7,2,12,0.00
2014-8-18,64.7,58.8,55.2,59.0,56.4,54.0,99,91,78,29.89,29.77,11,2,18,0.00
2014-8-19,68.6,61.1,56.6,60.0,57.8,55.0,96,89,73,29.86,29.80,10,3,12,0.01
2014-8-20,67.5,59.8,56.7,61.0,57.5,56.0,98,92,77,29.95,29.85,5,1,7,0.01
2014-8-21,68.2,60.6,56.3,61.0,57.6,55.0,97,90,74,29.99,29.90,7,2,10,0.00
2014-8-22,69.8,60.1,55.5,62.0,57.3,54.0,98,90,75,29.94,29.84,10,3,19,0.00
2014-8-23,69.3,61.2,56.9,61.0,57.7,56.0,97,87,74,29.96,29.87,11,3,15,0.00
2014-8-24,70.1,61.6,57.8,59.0,57.3,56.0,95,86,66,29.92,29.83,12,3,12,0.00
2014-8-25,70.0,60.8,55.7,62.0,57.5,55.0,97,89,73,29.95,29.83,16,4,21,0.02
2014-8-26,70.8,62.0,57.2,60.0,57.3,55.0,94,85,67,30.03,29.95,8,2,10,0.00
2014-8-27,63.9,58.5,54.0,59.0,56.4,53.0,97,93,82,30.09,29.98,7,2,10,0.00
2014-8-28,65.0,59.0,55.7,60.0,57.2,55.0,98,94,83,30.08,29.94,7,2,12,0.01
2014-8-29,72.3,60.4,54.3,63.0,57.3,53.0,97,90,67,29.98,29.86,15,3,20,0.00
2014-8-30,68.7,60.3,53.1,60.0,56.6,52.0,95,88,73,29.93,29.86,16,4,21,0.00
2014-8-31,67.3,59.1,52.7,59.0,55.1,52.0,98,87,70,29.93,29.83,15,3,19,0.01
2014-9-1,73.0,60.9,53.5,59.0,54.9,51.0,93,81,59,29.86,29.74,8,2,14,0.00
2014-9-2,66.1,57.4,51.0,58.0,54.8,50.0,98,91,74,29.84,29.76,8,2,11,0.00
2014-9-3,67.2,58.9,54.6,61.0,56.6,54.0,97,92,78,29.81,29.71,6,1,9,0.01
2014-9-4,70.0,60.6,55.0,62.0,57.4,54.0,98,90,73,29.79,29.70,10,3,17,0.01
2014-9-5,69.6,63.3,57.1,60.0,57.1,55.0,92,81,69,29.91,29.83,11,4,15,0.00
2014-9-6,68.7,61.0,56.8,59.0,55.7,54.0,92,83,66,29.97,29.89,8,2,10,0.00
2014-9-7,65.0,58.6,51.6,56.0,53.6,50.0,93,84,71,29.91,29.81,9,3,14,0.00
2014-9-8,60.6,55.0,49.5,55.0,52.3,48.0,96,90,82,29.92,29.83,9,3,14,0.00
2014-9-9,66.6,56.6,49.9,59.0,53.6,49.0,98,90,74,30.01,29.88,7,2,11,0.01
2014-9-10,66.6,56.7,48.7,60.0,54.3,48.0,97,92,79,29.96,29.85,9,3,14,0.00
2014-9-11,66.5,57.8,50.0,60.0,55.3,49.0,98,91,79,29.93,29.84,10,2,11,0.00
2014-9-12,64.6,57.2,52.9,58.0,55.4,52.0,98,94,80,29.92,29.81,6,2,8,0.01
2014-9-13,64.1,58.6,54.9,60.0,56.9,54.0,98,94,83,29.86,29.78,6,2,10,0.00
2014-9-14,65.4,58.9,54.4,59.0,56.3,53.0,98,91,77,29.88,29.81,7,2,9,0.00
2014-9-15,70.1,59.6,53.0,61.0,56.4,52.0,98,89,73,29.93,29.83,10,2,13,0.00
2014-9-16,69.9,60.4,50.7,63.0,57.0,50.0,96,88,72,29.93,29.79,13,5,16,0.00
2014-9-17,72.7,65.1,59.6,64.0,60.8,58.0,96,86,70,29.81,29.72,15,6,26,0.03
2014-9-18,73.0,66.4,60.2,69.0,64.6,59.0,99,94,82,29.88,29.73,16,7,26,0.32
2014-9-19,69.4,62.0,56.2,65.0,60.4,55.0,99,94,84,29.91,29.85,8,2,11,0.01
2014-9-20,69.2,62.7,59.1,64.0,60.6,59.0,98,92,80,29.95,29.86,11,2,15,0.01
2014-9-21,72.8,64.8,60.7,61.0,59.6,58.0,92,84,66,30.02,29.92,7,2,9,0.00
2014-9-22,69.5,63.8,56.7,61.0,58.8,55.0,93,84,73,30.04,29.96,9,2,11,0.00
2014-9-23,74.0,63.3,52.6,66.0,60.1,52.0,96,90,75,30.01,29.92,15,4,18,0.01
2014-9-24,68.5,64.2,59.7,67.0,63.5,59.0,98,97,94,29.94,29.88,14,4,20,0.33
2014-9-25,70.8,62.3,55.4,65.0,60.1,55.0,99,93,81,30.00,29.88,12,4,18,0.03
2014-9-26,67.5,60.6,54.6,63.0,57.6,54.0,98,90,71,30.01,29.91,13,5,20,0.04
2014-9-27,69.8,60.3,54.6,60.0,56.7,53.0,95,88,70,29.93,29.81,19,4,22,0.00
2014-9-28,65.6,58.9,52.6,61.0,56.4,51.0,96,92,83,29.97,29.80,9,3,13,0.00
2014-9-29,65.3,59.3,54.5,60.0,56.5,54.0,97,91,81,30.02,29.95,19,3,21,0.00
2014-9-30,68.1,59.8,53.5,58.0,55.4,51.0,97,86,68,29.98,29.84,12,3,20,0.01
2014-10-1,71.1,60.1,51.7,57.0,53.0,49.0,93,78,58,29.93,29.86,11,3,15,0.00
2014-10-2,74.9,61.5,50.3,52.0,47.3,43.0,83,62,32,30.03,29.92,12,5,17,0.00
2014-10-3,79.4,63.8,51.2,53.0,46.8,43.0,76,57,30,30.08,30.00,17,6,19,0.00
2014-10-4,67.0,57.8,51.0,58.0,51.1,44.0,97,80,50,30.04,29.93,12,4,16,0.00
2014-10-5,61.3,54.5,49.2,57.0,52.6,47.0,97,93,83,29.99,29.90,8,1,9,0.00
2014-10-6,59.6,53.1,48.3,57.0,52.0,48.0,99,96,86,29.95,29.87,6,1,9,0.01
2014-10-7,65.4,54.7,46.0,59.0,51.9,45.0,97,90,77,29.94,29.84,6,2,12,0.01
2014-10-8,65.2,56.1,48.8,59.0,52.4,47.0,95,88,76,29.94,29.86,9,2,12,0.00
2014-10-9,61.9,54.9,50.2,57.0,52.8,49.0,97,92,83,29.98,29.90,12,2,17,0.01
2014-10-10,63.3,55.8,49.4,57.0,52.9,48.0,97,90,78,30.06,29.96,10,3,17,0.01
2014-10-11,67.1,57.3,49.0,59.0,53.8,48.0,97,88,72,30.06,29.96,11,3,18,0.01
2014-10-12,74.7,62.3,54.2,57.0,52.8,47.0,90,72,47,30.00,29.89,7,2,9,0.00
2014-10-13,70.5,60.0,52.9,58.0,51.2,41.0,94,73,49,29.97,29.88,15,4,18,0.00
2014-10-14,63.9,60.6,57.8,62.0,57.7,54.0,95,90,82,29.95,29.79,18,7,26,0.03
2014-10-15,68.5,60.0,54.1,61.0,57.3,53.0,98,91,74,30.04,29.82,12,4,16,0.10
2014-10-16,66.8,57.5,49.1,59.0,53.8,48.0,96,88,74,30.04,29.91,11,4,14,0.00
2014-10-17,67.7,60.3,54.8,61.0,56.3,52.0,97,87,68,29.96,29.89,14,6,23,0.29
2014-10-18,71.5,64.4,58.6,65.0,61.7,57.0,98,91,76,29.98,29.89,9,3,16,0.07
2014-10-19,70.5,62.7,56.8,64.0,59.9,56.0,97,91,76,29.92,29.85,8,3,12,0.00
2014-10-20,67.6,61.3,52.8,63.0,58.6,51.0,97,91,77,30.03,29.85,10,2,13,0.34
2014-10-21,64.7,56.2,49.1,58.0,52.5,48.0,97,88,76,30.11,30.02,13,6,16,0.01
2014-10-22,70.1,58.6,48.7,62.0,54.9,47.0,95,88,74,30.08,30.01,14,4,15,0.00
2014-10-23,66.5,62.6,59.5,64.0,60.7,58.0,97,93,90,30.05,29.96,12,2,15,0.04
2014-10-24,68.9,62.3,57.5,61.0,58.9,56.0,98,89,74,29.96,29.83,26,8,33,0.01
2014-10-25,68.7,61.3,53.6,64.0,58.8,52.0,97,91,79,30.14,29.82,19,7,40,0.31
2014-10-26,65.3,56.0,49.4,55.0,51.3,48.0,97,85,62,30.20,30.08,15,4,19,0.01
2014-10-27,62.6,55.6,48.8,55.0,49.8,45.0,91,81,67,30.08,30.01,14,4,21,0.00
2014-10-28,65.2,56.7,47.5,59.0,52.1,45.0,92,85,74,30.13,30.05,13,4,16,0.00
2014-10-29,68.6,60.0,53.1,60.0,55.3,51.0,94,85,62,30.11,29.95,10,3,12,0.00
2014-10-30,70.9,60.1,54.6,62.0,57.8,54.0,97,92,68,29.95,29.86,8,2,10,0.00
2014-10-31,62.3,58.0,51.8,60.0,55.5,49.0,98,91,80,29.89,29.73,15,3,25,0.45
2014-11-1,62.4,53.4,45.8,53.0,48.6,45.0,96,84,60,30.06,29.73,15,5,20,0.01
2014-11-2,63.2,53.3,44.9,53.0,47.2,42.0,91,80,64,30.18,30.06,12,4,17,0.00
2014-11-3,61.8,53.2,45.8,56.0,49.3,44.0,93,87,76,30.26,30.17,12,4,16,0.00
2014-11-4,64.6,55.2,46.5,57.0,51.2,45.0,95,86,76,30.33,30.23,10,3,13,0.00
2014-11-5,67.7,57.3,50.0,59.0,53.2,49.0,95,86,68,30.23,30.07,10,3,12,0.00
2014-11-6,65.3,57.9,50.6,61.0,54.9,49.0,95,89,78,30.23,30.13,13,3,15,0.00
2014-11-7,63.3,56.6,50.7,59.0,54.8,50.0,98,93,85,30.23,30.09,9,4,13,0.00
2014-11-8,64.3,56.4,50.8,60.0,54.3,50.0,97,93,83,30.14,30.01,10,3,14,0.01
2014-11-9,64.1,55.3,49.1,58.0,53.1,48.0,97,92,80,30.03,29.82,8,2,11,0.01
2014-11-10,59.8,54.5,48.3,57.0,52.9,47.0,97,94,88,29.84,29.79,9,2,12,0.01
2014-11-11,62.5,56.1,49.3,55.0,52.3,48.0,95,87,72,29.96,29.83,9,4,14,0.00
2014-11-12,63.7,55.0,46.3,55.0,50.7,45.0,95,86,66,30.02,29.92,12,5,16,0.12
2014-11-13,63.4,57.7,53.5,61.0,56.4,53.0,100,95,88,30.09,29.91,10,2,11,0.29
2014-11-14,63.1,54.4,48.3,59.0,52.3,48.0,98,93,83,30.11,30.05,13,4,14,0.01
2014-11-15,62.2,53.5,46.7,57.0,50.7,46.0,97,90,80,30.20,30.09,10,4,17,0.01
2014-11-16,62.4,51.8,44.1,55.0,49.0,43.0,96,90,72,30.26,30.18,18,7,18,0.00
2014-11-17,61.6,52.1,43.3,55.0,46.5,37.0,95,82,53,30.25,30.06,14,5,18,0.00
2014-11-18,71.1,61.6,50.5,41.0,34.1,28.0,61,36,23,30.08,29.96,20,6,23,0.00
2014-11-19,61.4,55.0,51.2,56.0,49.0,33.0,98,84,35,30.12,29.92,31,5,31,0.41
2014-11-20,58.4,53.0,48.3,57.0,52.1,48.0,98,96,91,30.12,29.96,13,4,17,0.40
2014-11-21,59.7,53.3,45.0,59.0,51.8,44.0,98,95,88,30.11,30.03,15,7,21,0.19
2014-11-22,63.8,58.4,49.5,61.0,56.0,47.0,99,92,71,30.27,29.99,12,5,20,0.39
2014-11-23,61.2,52.4,44.7,52.0,46.9,42.0,93,82,60,30.34,30.26,9,2,15,0.00
2014-11-24,63.5,51.6,42.1,55.0,47.8,41.0,95,87,69,30.41,30.31,13,5,15,0.00
2014-11-25,63.6,53.4,45.8,57.0,50.4,45.0,96,90,73,30.45,30.30,12,5,15,0.00
2014-11-26,69.5,55.8,45.1,55.0,49.3,44.0,95,80,53,30.30,30.18,12,5,17,0.00
2014-11-27,65.3,54.2,46.0,56.0,50.2,44.0,96,87,66,30.18,30.04,13,6,19,0.00
2014-11-28,59.8,56.5,53.2,59.0,54.1,50.0,98,91,83,30.03,29.80,14,5,20,0.37
2014-11-29,61.5,58.3,56.1,61.0,57.6,55.0,99,97,96,29.82,29.72,13,3,18,0.44
2014-11-30,59.3,56.4,54.0,57.0,52.9,51.0,98,88,78,30.00,29.69,14,5,31,0.18
2014-12-1,66.2,60.5,56.9,60.0,57.1,54.0,95,88,78,30.07,29.90,11,5,23,0.01
2014-12-2,63.1,58.2,55.5,57.0,55.4,55.0,97,91,78,29.91,29.61,23,6,33,2.00
2014-12-3,62.2,59.3,56.3,62.0,58.8,55.0,99,98,96,29.86,29.61,19,7,37,1.33
2014-12-4,63.2,58.5,53.9,62.0,57.7,53.0,99,97,90,29.99,29.85,14,4,17,0.36
2014-12-5,61.7,59.4,54.2,61.0,58.8,54.0,98,97,95,30.04,29.91,21,8,35,0.67
2014-12-6,63.8,56.8,52.5,60.0,55.2,52.0,99,94,83,30.21,30.08,13,4,17,0.00
2014-12-7,62.6,58.9,55.1,59.0,56.7,53.0,96,92,84,30.20,30.08,20,5,23,0.03
2014-12-8,61.6,60.3,58.1,61.0,59.5,58.0,98,97,94,30.15,30.08,15,6,25,0.53
2014-12-9,61.0,58.5,54.6,61.0,57.9,54.0,98,97,96,30.19,30.05,9,2,13,0.01
2014-12-10,60.9,58.3,55.6,60.0,57.2,55.0,98,96,91,30.05,29.59,27,7,49,0.52
2014-12-11,60.7,56.2,50.3,61.0,55.8,50.0,99,98,97,29.66,29.41,38,11,49,0.68
2014-12-12,54.6,49.7,44.8,54.0,49.2,44.0,99,98,96,30.08,29.65,12,3,15,0.61
2014-12-13,57.3,48.2,41.2,53.0,46.5,41.0,99,94,82,30.22,30.08,16,6,18,0.23
2014-12-14,57.0,51.9,48.1,50.0,47.7,46.0,94,85,74,30.13,29.90,16,7,27,0.81
2014-12-15,53.1,35.9,49.9,51.0,34.4,48.0,95,64,87,29.91,29.78,14,4,24,0.47
2014-12-16,-200.0,0.0,200.0,-99.9,0.0,200.0,0,0,100,29.89,29.77,0,0,0,0.00
2014-12-17,-200.0,0.0,200.0,-99.9,0.0,200.0,0,0,100,30.04,29.89,0,0,0,0.00
2014-12-18,-200.0,0.0,200.0,-99.9,0.0,200.0,0,0,100,30.16,30.03,0,0,0,0.00
2014-12-19,-200.0,0.0,200.0,-99.9,0.0,200.0,0,0,100,30.14,30.04,0,0,0,0.00
2014-12-20,-200.0,0.0,200.0,-99.9,0.0,200.0,0,0,100,30.22,30.11,0,0,0,0.00
2014-12-21,-200.0,0.0,200.0,-99.9,0.0,200.0,0,0,100,30.32,30.22,0,0,0,0.00
2014-12-22,-200.0,0.0,200.0,-99.9,0.0,200.0,0,0,100,30.31,30.20,0,0,0,0.00
2014-12-23,-200.0,0.0,200.0,-99.9,0.0,200.0,0,0,100,30.23,30.12,0,0,0,0.00
2014-12-24,55.1,8.6,52.9,52.0,8.0,48.0,94,14,81,30.13,29.99,14,2,28,0.00
2014-12-25,-200.0,0.0,200.0,-99.9,0.0,200.0,0,0,100,30.16,30.12,0,0,0,0.00
2014-12-26,59.4,25.9,39.4,46.0,21.8,37.0,92,40,54,30.25,30.14,18,4,21,1.15
2014-12-27,57.4,45.4,35.0,46.0,40.4,33.0,94,84,57,30.36,30.24,15,8,20,0.00
2014-12-28,58.2,48.5,41.2,52.0,45.6,40.0,96,90,77,30.35,30.23,15,6,17,0.00
2014-12-29,56.2,46.2,36.6,43.0,39.2,34.0,94,78,52,30.23,30.12,16,5,23,0.00
2014-12-30,56.4,45.4,37.0,37.0,26.4,15.0,87,51,21,30.33,30.13,15,4,21,0.00
2014-12-31,58.7,44.6,32.4,45.0,28.7,16.0,85,56,28,30.32,30.05,15,5,18,0.00
2015-1-1,55.6,42.5,32.8,46.0,37.4,29.0,95,82,66,30.15,30.05,15,7,18,0.00
2015-1-2,57.1,44.6,36.7,48.0,41.3,36.0,96,89,68,30.20,30.11,14,6,18,0.00